Current weather by "City, St" or "zip code"  
 

Current Conditions: Americus Souther Field Airport, GA

Fair


54.0 F

Last Updated on Jan 19 2022, 11:55 pm EST
Humidity: 44%
Wind Speed: S 4.6 mph
Barometer 30.15 in
Dewpoint: 32.0 F
Visibility: 10.00 mi
Precip: --
Heat Index: NA
Wind Chill: 53 F
Current conditions at:

Americus Souther Field Airport, GA (KACJ)

Lat: 32.11081 Lon: 84.18886

Local Radar Image active severe weather and emergency alerts image image weather storm and storm spotter reports image weather observation monitoring service image
Local
Radar
Active
Alerts
Storm Reports Obs
Monitoring

Sign-up For Email & Text Message Weather Alert Notification Services



Advertise Here

Observation History for Americus Souther Field Airport, GA


Time Wind
(mph)
Vis
(mi)
Weather Precip (in) Temperature (F) Relative
Humidity
Wind
Chill
(F)
Heat
Index
(F)
Pressure
Air Dwpt altimeter
(in)
sea level
(mb)
Rmks
11:55 pm EST S 4.6 10.00 Fair -- 54.0 32.0 44% 53 NA 30.15 M
10:55 pm EST S 4.6 10.00 Fair -- 55.0 33.8 44% 54 NA 30.16 M
10:35 pm EST S 4.6 10.00 Fair -- 54.0 35.6 51% 53 NA 30.15 M
9:55 pm EST N 0.0 10.00 Fair -- 50.0 37.4 62% NA NA 30.16 M
8:55 pm EST N 0.0 10.00 Fair -- 55.0 32.0 41% NA NA 30.14 M
8:35 pm EST S 3.5 10.00 Fair -- 57.0 32.0 39% NA NA 30.14 M
7:55 pm EST S 3.5 10.00 Fair -- 55.0 33.8 44% NA NA 30.15 M
7:35 pm EST S 3.5 10.00 Fair -- 54.0 35.6 51% NA NA 30.15 M
6:55 pm EST N 0.0 10.00 Fair -- 54.0 41.0 63% NA NA 30.16 M
5:55 pm EST N 0.0 10.00 Fair -- 59.0 35.6 42% NA NA 30.15 M
5:35 pm EST N 0.0 10.00 Fair -- 63.0 32.0 32% NA NA 30.16 M
4:55 pm EST S 4.6 10.00 Fair -- 64.0 30.2 28% NA NA 30.17 M
3:55 pm EST S 6.9 10.00 Fair -- 64.0 32.0 30% NA NA 30.18 M
2:55 pm EST S 6.9 10.00 Fair -- 64.0 32.0 30% NA NA 30.19 M
1:55 pm EST SW 8.1 10.00 Fair -- 64.0 28.4 26% NA NA 30.22 M
12:55 pm EST SW 6.9 10.00 Fair -- 61.0 32.0 34% 60 NA 30.25 M
11:55 am EST S 4.6 10.00 Fair -- 59.0 33.8 39% 59 NA 30.28 M
11:35 am EST S 5.8 10.00 Fair -- 59.0 33.8 39% 58 NA 30.30 M
10:55 am EST S 4.6 10.00 Fair -- 54.0 33.8 47% 53 NA 30.31 M
9:55 am EST N 0.0 10.00 Fair -- 48.0 37.4 66% NA NA 30.30 M
8:55 am EST N 0.0 10.00 Fair -- 37.0 35.6 93% NA NA 30.29 M
7:55 am EST N 0.0 10.00 Fair -- 36.0 33.8 93% NA NA 30.29 M
7:35 am EST N 0.0 10.00 Fair -- 36.0 33.8 93% NA NA 30.29 M
6:55 am EST N 0.0 10.00 Fair -- 34.0 32.0 93% NA NA 30.28 M

Regional Weather Observation


Butler Municipal Airport, GA (K6A1)

Fair
51.0 F

Fort Benning, GA (KLSF)

Overcast
45.0 F

Columbus, Columbus Metropolitan Airport, GA (KCSG)

Mostly Cloudy
52.0 F

Thomaston, Thomaston-Upson County Airport, GA (KOPN)

Partly Cloudy
50.0 F

Pine Mountain Harris County Airport, GA (KPIM)

Mostly Cloudy
53.0 F

Perry-Houston County Airport, GA (KPXE)

Fair
46.0 F

Advertise Here


Advertise Here